This demonstration page uses our WeatherBlox Daily Observations layout. Learn more.

41.55636, -103.73856

Hourly Observations for August 10, 2019

Temp ( °F °C ) Dew Point ( °F °C ) Humidity (%) Winds ( mph kmh ) Pressure ( in mb ) Visibility ( mi km ) Precip ( " mm )
12:53 am 00:53 Clear 68 20 62 16.7 81 81 SW 10 17 29.77 1008 10 16.09344 0 0
1:53 am 01:53 Clear 69 20.6 64 17.8 84 84 ESE 6 9 29.8 1009 10 16.09344 0 0
2:53 am 02:53 Clear 66 18.9 63 17.2 90 90 ENE 5 7 29.8 1009 10 16.09344 0 0
3:53 am 03:53 Clear 64 17.8 62 16.7 93 93 NNW 6 9 29.8 1009 10 16.09344 0 0
4:53 am 04:53 Clear 63 17.2 62 16.7 97 97 NNW 3 6 29.8 1009 10 16.09344 0 0
5:53 am 05:53 Clear 63 17.2 62 16.7 97 97 WNW 7 11 29.83 1010 9 14.484096 0 0
6:53 am 06:53 Sunny 63 17.2 61 16.1 93 93 NW 6 9 29.85 1011 9 14.484096 0 0
7:53 am 07:53 Sunny 69 20.6 63 17.2 81 81 NW 6 9 29.85 1011 10 16.09344 0 0
8:53 am 08:53 Sunny 73 22.8 64 17.8 74 74 W 5 7 29.88 1012 10 16.09344 0 0
9:53 am 09:53 Sunny 76 24.4 66 18.9 72 72 VRB 3 6 29.88 1012 10 16.09344 0 0
10:53 am 10:53 Sunny 77 25 66 18.9 69 69 S 5 7 29.88 1012 10 16.09344 0 0
11:53 am 11:53 Sunny 78 25.6 67 19.4 69 69 Calm 29.88 1012 10 16.09344 0 0
12:53 pm 12:53 Sunny 80 26.7 68 20 67 67 E 6 9 29.88 1012 10 16.09344 0 0
1:53 pm 13:53 Sunny 80 26.7 68 20 67 67 ESE 5 7 29.88 1012 10 16.09344 0 0
2:53 pm 14:53 Sunny 81 27.2 68 20 65 65 NE 6 9 29.88 1012 10 16.09344 0 0
3:53 pm 15:53 Sunny 83 28.3 67 19.4 59 59 E 6 9 29.85 1011 10 16.09344 0 0
4:53 pm 16:53 Sunny 82 27.8 64 17.8 55 55 ESE 3 6 29.83 1010 10 16.09344 0 0
5:53 pm 17:53 Sunny 87 30.6 62 16.7 43 43 NE 6 9 29.83 1010 10 16.09344 0 0
6:53 pm 18:53 Sunny 82 27.8 65 18.3 56 56 ENE 8 13 29.83 1010 10 16.09344 0 0
7:53 pm 19:53 Mostly Cloudy 76 24.4 65 18.3 69 69 E 7 11 29.85 1011 10 16.09344 0 0
8:53 pm 20:53 Mostly Cloudy 75 23.9 67 19.4 76 76 SE 7 11 29.85 1011 10 16.09344 0 0
9:53 pm 21:53 Mostly Cloudy 74 23.3 64 17.8 71 71 SE 8 13 29.88 1012 10 16.09344 0 0
10:53 pm 22:53 Partly Cloudy 71 21.7 63 17.2 76 76 E 10 17 29.88 1012 10 16.09344 0 0
11:07 pm 23:07 Mostly Cloudy 73 22.8 62 16.7 69 69 E 14 22 29.83 1010 10 16.09344 0 0
11:53 pm 23:53 Mostly Cloudy 71 21.7 62 16.7 73 73 ESE 9 15 29.91 1013 10 16.09344 0 0

Powered by AerisWeather